This demonstration page uses our WeatherBlox Daily Observations layout. Learn more.

Hourly Observations for January 29, 2019

Temp ( °F °C ) Dew Point ( °F °C ) Humidity (%) Winds ( mph kmh ) Pressure ( in mb ) Visibility ( mi km ) Precip ( " mm )
12:15 am 00:15 Partly Cloudy 20 -6.5 11 -11.6 67 67 WSW 6 9 30.31 1026 10 16.0934 0 0
12:35 am 00:35 Partly Cloudy 20 -6.5 11 -11.6 67 67 WSW 6 9 30.31 1026 10 16.0934 0 0
12:55 am 00:55 Partly Cloudy 21 -6 11 -11.5 65 65 WSW 8 13 30.29 1026 10 16.0934 0 0
1:15 am 01:15 Partly Cloudy 22 -5.7 12 -11.1 66 66 WSW 13 20 30.28 1025 10 16.0934 0 0
1:35 am 01:35 Clear 22 -5.6 13 -10.5 69 69 W 15 24 30.27 1025 10 16.0934 0 0
1:55 am 01:55 Clear 22 -5.7 13 -10.4 70 70 W 16 26 30.27 1025 10 16.0934 0 0
2:15 am 02:15 Clear 21 -6.2 14 -10.1 74 74 W 16 26 30.29 1026 10 16.0934 0 0
2:35 am 02:35 Partly Cloudy 21 -6.2 14 -10 75 75 W 13 20 30.29 1026 10 16.0934 0 0
2:55 am 02:55 Partly Cloudy 20 -6.6 14 -10 77 77 W 9 15 30.3 1026 10 16.0934 0 0
3:15 am 03:15 Clear 19 -7 14 -10 79 79 NW 7 11 30.31 1027 10 16.0934 0 0
3:35 am 03:35 Partly Cloudy 18 -7.7 14 -10.1 83 83 NNW 6 9 30.31 1026 10 16.0934 0 0
3:55 am 03:55 Mostly Cloudy 19 -7 15 -9.6 82 82 NNW 8 13 30.3 1026 10 16.0934 0 0
4:15 am 04:15 Mostly Cloudy 19 -7 15 -9.7 81 81 NNW 8 13 30.29 1026 10 16.0934 0 0
4:35 am 04:35 Cloudy 19 -7.4 15 -9.6 84 84 W 3 6 30.3 1026 10 16.0934 0 0
4:55 am 04:55 Mostly Cloudy 17 -8.1 14 -9.9 87 87 W 5 7 30.3 1026 10 16.0934 0 0
5:15 am 05:15 Mostly Cloudy 18 -7.9 15 -9.5 88 88 WNW 6 9 30.29 1026 10 16.0934 0 0
5:35 am 05:35 Partly Cloudy 17 -8.5 14 -10.2 88 88 W 7 11 30.3 1026 10 16.0934 0 0
5:55 am 05:55 Clear 16 -9 13 -10.3 90 90 W 7 11 30.29 1026 10 16.0934 0 0
6:15 am 06:15 Clear 18 -7.6 15 -9.5 86 86 W 8 13 30.29 1026 10 16.0934 0 0
6:35 am 06:35 Mostly Cloudy 19 -7.2 15 -9.5 84 84 W 9 15 30.28 1025 10 16.0934 0 0
6:55 am 06:55 Cloudy 19 -7.3 15 -9.5 84 84 W 10 17 30.28 1025 10 16.0934 0 0
7:15 am 07:15 Cloudy 20 -6.4 16 -9 82 82 W 12 19 30.27 1025 10 16.0934 0 0
7:35 am 07:35 Cloudy 21 -6 16 -8.8 81 81 W 12 19 30.25 1025 10 16.0934 0 0
7:55 am 07:55 Cloudy 22 -5.6 17 -8.5 80 80 W 10 17 30.25 1024 10 16.0934 0 0
8:15 am 08:15 Mostly Cloudy 22 -5.7 16 -8.9 78 78 W 13 20 30.24 1024 10 16.0934 0 0
8:35 am 08:35 Mostly Cloudy 22 -5.5 16 -8.8 78 78 W 13 20 30.25 1024 10 16.0934 0 0
8:55 am 08:55 Mostly Cloudy 22 -5.5 17 -8.6 79 79 W 10 17 30.25 1024 10 16.0934 0 0
9:15 am 09:15 Mostly Cloudy 23 -4.8 18 -7.7 80 80 W 12 19 30.26 1025 10 16.0934 0 0
9:35 am 09:35 Cloudy 24 -4.5 17 -8.1 76 76 N 14 22 30.27 1025 10 16.0934 0 0
9:55 am 09:55 Cloudy with Light Snow 19 -7 14 -10.2 78 78 NNE 14 22 30.31 1027 10 16.0934 0 0
10:15 am 10:15 Mostly Cloudy 20 -6.5 14 -10.2 75 75 NNE 10 17 30.3 1026 10 16.0934 0 0
10:35 am 10:35 Sunny 21 -6.1 13 -10.4 72 72 N 12 19 30.31 1026 10 16.0934 0 0
10:55 am 10:55 Partly Cloudy 22 -5.7 14 -10.2 71 71 NNE 12 19 30.3 1026 10 16.0934 0 0
11:15 am 11:15 Mostly Cloudy 21 -6 13 -10.6 70 70 N 14 22 30.31 1027 10 16.0934 0 0
11:35 am 11:35 Cloudy 20 -6.4 12 -11 70 70 NNE 12 19 30.32 1027 10 16.0934 0 0
11:55 am 11:55 Cloudy 20 -6.6 12 -11.1 71 71 N 9 15 30.32 1027 10 16.0934 0 0
12:15 pm 12:15 Cloudy 20 -6.8 11 -11.5 70 70 N 14 22 30.32 1027 10 16.0934 0 0
12:35 pm 12:35 Cloudy with Light Snow 20 -6.8 13 -10.6 75 75 N 9 15 30.31 1026 10 16.0934 0 0
12:55 pm 12:55 Cloudy 20 -6.6 13 -10.8 72 72 N 9 15 30.29 1026 10 16.0934 0 0
1:15 pm 13:15 Cloudy 22 -5.8 12 -11.1 67 67 N 9 15 30.28 1025 10 16.0934 0 0
1:35 pm 13:35 Cloudy 21 -5.9 13 -10.8 69 69 NNE 10 17 30.28 1026 10 16.0934 0 0
1:55 pm 13:55 Cloudy 20 -6.7 12 -11.1 71 71 N 9 15 30.29 1026 10 16.0934 0 0
2:15 pm 14:15 Cloudy with Light Snow 20 -6.5 11 -11.4 69 69 NNW 7 11 30.28 1025 7 11.26538 0 0
2:35 pm 14:35 Cloudy 20 -6.4 11 -11.5 67 67 NNW 10 17 30.28 1025 10 16.0934 0 0
2:55 pm 14:55 Cloudy 21 -6.1 11 -11.5 66 66 N 8 13 30.27 1025 10 16.0934 0 0
3:15 pm 15:15 Cloudy 21 -6.3 11 -11.9 65 65 N 9 15 30.26 1025 10 16.0934 0 0
3:35 pm 15:35 Cloudy 21 -6 11 -11.8 64 64 NNE 14 22 30.25 1025 10 16.0934 0 0
3:55 pm 15:55 Mostly Cloudy 21 -6.1 10 -12.5 61 61 N 12 19 30.26 1025 10 16.0934 0 0
4:15 pm 16:15 Mostly Cloudy 21 -6 9 -12.6 60 60 N 9 15 30.25 1025 10 16.0934 0 0
4:35 pm 16:35 Cloudy 22 -5.8 9 -12.9 58 58 N 12 19 30.26 1025 10 16.0934 0 0
4:55 pm 16:55 Cloudy 20 -6.5 7 -13.7 57 57 NNW 12 19 30.28 1025 10 16.0934 0 0
5:15 pm 17:15 Mostly Cloudy 19 -7 6 -14.2 57 57 N 9 15 30.28 1026 10 16.0934 0 0
5:35 pm 17:35 Cloudy 19 -7.4 7 -14.1 59 59 N 8 13 30.29 1026 10 16.0934 0 0
6:15 pm 18:15 Clear 15 -9.3 6 -14.3 67 67 N 10 17 30.32 1027 10 16.0934 0 0
6:35 pm 18:35 Partly Cloudy 15 -9.6 5 -15 65 65 N 9 15 30.33 1027 10 16.0934 0 0
6:55 pm 18:55 Mostly Cloudy 15 -9.5 4 -15.5 62 62 N 14 22 30.34 1027 10 16.0934 0 0
7:15 pm 19:15 Cloudy 15 -9.5 2 -16.5 57 57 N 17 28 30.35 1028 10 16.0934 0 0
7:35 pm 19:35 Cloudy 14 -9.8 2 -16.8 57 57 N 14 22 30.35 1028 10 16.0934 0 0
7:55 pm 19:55 Mostly Cloudy 14 -10 0 -18 52 52 N 12 19 30.37 1028 10 16.0934 0 0
8:15 pm 20:15 Mostly Cloudy 14 -10.2 -1 -18.3 52 52 N 8 13 30.38 1029 10 16.0934 0 0
8:35 pm 20:35 Partly Cloudy 13 -10.5 -1 -18.6 52 52 N 13 20 30.39 1029 10 16.0934 0 0
8:55 pm 20:55 Clear 12 -11 -1 -18.6 54 54 N 13 20 30.4 1029 10 16.0934 0 0
9:15 pm 21:15 Clear 12 -11.2 -1 -18.6 55 55 N 15 24 30.4 1029 10 16.0934 0 0
9:35 pm 21:35 Clear 11 -11.6 -1 -18.6 56 56 N 10 17 30.41 1030 10 16.0934 0 0
9:55 pm 21:55 Clear 11 -11.7 -2 -19.1 55 55 NNW 12 19 30.42 1030 10 16.0934 0 0
10:15 pm 22:15 Clear 9 -12.6 -1 -18.5 62 62 N 10 17 30.43 1031 10 16.0934 0 0
10:35 pm 22:35 Partly Cloudy 8 -13.2 -3 -19.3 60 60 N 10 17 30.46 1031 10 16.0934 0 0
10:55 pm 22:55 Mostly Cloudy 8 -13.5 -3 -19.3 62 62 N 9 15 30.46 1032 10 16.0934 0 0
11:15 pm 23:15 Cloudy 7 -13.7 -3 -19.5 62 62 N 10 17 30.47 1032 10 16.0934 0 0
11:35 pm 23:35 Partly Cloudy 7 -14 -3 -19.4 64 64 N 7 11 30.49 1032 10 16.0934 0 0
11:55 pm 23:55 Clear 6 -14.3 -2 -19 68 68 N 9 15 30.49 1033 10 16.0934 0 0

Powered by AerisWeather